Time,TemperatureF,DewpointF,PressureIn,WindDirection,WindDirectionDegrees,WindSpeedMPH,WindSpeedGustMPH,Humidity,HourlyPrecipIn,Conditions,Clouds,dailyrainin,SoftwareType,DateUTC
2013-05-29 00:01:00,57.6,54.7,29.78,ESE,107,15.0,15.0,90,0.00,RA,,0.00,WeatherDisplay:10.37,2013-05-29 04:01:00,
2013-05-29 00:02:00,57.6,54.7,29.78,East,96,16.0,16.0,90,0.00,RA,,0.00,WeatherDisplay:10.37,2013-05-29 04:02:00,
2013-05-29 00:03:00,57.6,54.7,29.78,ESE,120,16.1,16.1,90,0.00,RA,,0.00,WeatherDisplay:10.37,2013-05-29 04:03:00,
2013-05-29 00:08:00,57.6,55.0,29.77,ESE,103,13.0,13.0,91,0.05,RA,,0.00,WeatherDisplay:10.37,2013-05-29 04:08:00,
2013-05-29 00:12:00,57.6,55.0,29.77,East,88,12.7,12.7,91,0.04,CLR,,0.00,WeatherDisplay:10.37,2013-05-29 04:12:00,
2013-05-29 00:17:00,57.5,54.9,29.77,East,86,13.8,13.8,91,0.05,RA,,0.02,WeatherDisplay:10.37,2013-05-29 04:17:00,
2013-05-29 00:22:00,57.5,54.9,29.77,East,89,11.0,11.0,91,0.05,RA,,0.02,WeatherDisplay:10.37,2013-05-29 04:22:00,
2013-05-29 00:27:00,57.4,54.8,29.78,East,94,11.0,11.0,91,0.00,RA,,0.03,WeatherDisplay:10.37,2013-05-29 04:27:00,
2013-05-29 00:32:00,57.4,54.8,29.78,ESE,105,8.1,8.1,91,0.00,RA,,0.03,WeatherDisplay:10.37,2013-05-29 04:32:00,
2013-05-29 00:37:00,57.4,55.1,29.77,East,92,11.0,11.0,92,0.00,,,0.03,WeatherDisplay:10.37,2013-05-29 04:37:00,
2013-05-29 00:42:00,57.3,55.0,29.78,ENE,77,3.5,3.5,92,0.04,CLR,,0.03,WeatherDisplay:10.37,2013-05-29 04:42:00,
2013-05-29 00:47:00,57.3,55.0,29.77,ENE,63,4.6,4.6,92,0.04,CLR,,0.03,WeatherDisplay:10.37,2013-05-29 04:47:00,
2013-05-29 00:52:00,57.3,55.0,29.77,ENE,61,5.8,5.8,92,0.03,CLR,,0.03,WeatherDisplay:10.37,2013-05-29 04:52:00,
2013-05-29 00:57:00,57.2,54.9,29.77,East,82,4.6,4.6,92,0.03,CLR,,0.03,WeatherDisplay:10.37,2013-05-29 04:57:00,
2013-05-29 01:02:00,57.2,55.2,29.77,ENE,71,6.9,6.9,93,0.03,CLR,,0.03,WeatherDisplay:10.37,2013-05-29 05:02:00,
2013-05-29 01:07:00,57.1,55.1,29.76,ENE,59,6.9,6.9,93,0.03,CLR,,0.03,WeatherDisplay:10.37,2013-05-29 05:07:00,
2013-05-29 01:12:00,57.0,55.0,29.76,East,82,7.0,7.0,93,0.03,CLR,,0.03,WeatherDisplay:10.37,2013-05-29 05:12:00,
2013-05-29 01:17:00,56.9,54.9,29.76,NE,49,9.2,9.2,93,0.02,CLR,,0.03,WeatherDisplay:10.37,2013-05-29 05:17:00,
2013-05-29 01:22:00,56.9,54.9,29.76,ENE,57,9.2,9.2,93,0.01,CLR,,0.03,WeatherDisplay:10.37,2013-05-29 05:22:00,
2013-05-29 01:27:00,56.7,54.7,29.76,ENE,67,5.0,5.0,93,0.00,CLR,,0.03,WeatherDisplay:10.37,2013-05-29 05:27:00,
2013-05-29 01:32:00,56.6,54.6,29.76,ENE,78,5.0,5.0,93,0.00,CLR,,0.03,WeatherDisplay:10.37,2013-05-29 05:32:00,
2013-05-29 01:37:00,56.5,54.5,29.76,ENE,62,9.2,9.2,93,0.00,CLR,,0.03,WeatherDisplay:10.37,2013-05-29 05:37:00,
2013-05-29 01:42:00,56.4,54.4,29.75,ENE,60,8.1,8.1,93,0.00,CLR,,0.03,WeatherDisplay:10.37,2013-05-29 05:42:00,
2013-05-29 01:47:00,56.4,54.4,29.75,ENE,69,8.1,8.1,93,0.00,CLR,,0.03,WeatherDisplay:10.37,2013-05-29 05:47:00,
2013-05-29 01:52:00,56.4,54.4,29.75,ENE,75,9.2,9.2,93,0.00,CLR,,0.03,WeatherDisplay:10.37,2013-05-29 05:52:00,
2013-05-29 01:57:00,56.5,54.5,29.75,ENE,78,7.0,7.0,93,0.00,CLR,,0.03,WeatherDisplay:10.37,2013-05-29 05:57:00,
2013-05-29 02:02:00,56.4,54.4,29.75,East,86,8.1,8.1,93,0.00,CLR,,0.03,WeatherDisplay:10.37,2013-05-29 06:02:00,
2013-05-29 02:07:00,56.4,54.4,29.75,ENE,66,6.0,6.0,93,0.00,CLR,,0.03,WeatherDisplay:10.37,2013-05-29 06:07:00,
2013-05-29 02:12:00,56.4,54.4,29.75,ENE,70,4.6,4.6,93,0.00,CLR,,0.03,WeatherDisplay:10.37,2013-05-29 06:12:00,
2013-05-29 02:17:00,56.4,54.4,29.75,East,82,6.9,6.9,93,0.00,CLR,,0.03,WeatherDisplay:10.37,2013-05-29 06:17:00,
2013-05-29 02:22:00,56.4,54.4,29.75,East,90,8.1,8.1,93,0.00,CLR,,0.03,WeatherDisplay:10.37,2013-05-29 06:22:00,
2013-05-29 02:27:00,56.4,54.4,29.75,East,82,10.0,10.0,93,0.00,CLR,,0.03,WeatherDisplay:10.37,2013-05-29 06:27:00,
2013-05-29 02:32:00,56.4,54.4,29.75,ENE,69,4.6,4.6,93,0.00,CLR,,0.03,WeatherDisplay:10.37,2013-05-29 06:32:00,
2013-05-29 02:37:00,56.4,54.4,29.75,ENE,59,6.9,6.9,93,0.00,CLR,,0.03,WeatherDisplay:10.37,2013-05-29 06:37:00,
2013-05-29 02:42:00,56.4,54.4,29.75,ENE,71,6.9,6.9,93,0.00,CLR,,0.03,WeatherDisplay:10.37,2013-05-29 06:42:00,
2013-05-29 02:47:00,56.4,54.4,29.74,ENE,66,10.4,10.4,93,0.00,CLR,,0.03,WeatherDisplay:10.37,2013-05-29 06:47:00,
2013-05-29 02:52:00,56.5,54.5,29.74,ENE,61,9.0,9.0,93,0.00,CLR,,0.03,WeatherDisplay:10.37,2013-05-29 06:52:00,
2013-05-29 02:57:00,56.5,54.5,29.73,ENE,69,11.5,11.5,93,0.00,CLR,,0.03,WeatherDisplay:10.37,2013-05-29 06:57:00,
2013-05-29 03:02:00,56.4,54.4,29.73,ENE,64,8.1,8.1,93,0.00,CLR,,0.03,WeatherDisplay:10.37,2013-05-29 07:02:00,
2013-05-29 03:07:00,56.4,54.7,29.73,ENE,67,10.4,10.4,94,0.00,CLR,,0.03,WeatherDisplay:10.37,2013-05-29 07:07:00,
2013-05-29 03:12:00,56.4,54.7,29.73,ENE,78,9.2,9.2,94,0.00,CLR,,0.03,WeatherDisplay:10.37,2013-05-29 07:12:00,
2013-05-29 03:17:00,56.4,54.7,29.73,ENE,68,8.1,8.1,94,0.00,CLR,,0.03,WeatherDisplay:10.37,2013-05-29 07:17:00,
2013-05-29 03:22:00,56.5,54.8,29.73,ENE,65,6.9,6.9,94,0.00,CLR,,0.03,WeatherDisplay:10.37,2013-05-29 07:22:00,
2013-05-29 03:27:00,56.5,54.8,29.73,ENE,62,6.9,6.9,94,0.00,CLR,,0.03,WeatherDisplay:10.37,2013-05-29 07:27:00,
2013-05-29 03:33:00,56.4,54.7,29.73,ENE,65,8.0,8.0,94,0.00,CLR,,0.03,WeatherDisplay:10.37,2013-05-29 07:33:00,
2013-05-29 03:38:00,56.5,54.8,29.73,ENE,69,7.0,7.0,94,0.00,CLR,,0.03,WeatherDisplay:10.37,2013-05-29 07:38:00,
2013-05-29 03:43:00,56.5,54.8,29.73,NE,55,8.1,8.1,94,0.00,CLR,,0.03,WeatherDisplay:10.37,2013-05-29 07:43:00,
2013-05-29 03:48:00,56.5,54.8,29.73,ENE,59,8.0,8.0,94,0.00,CLR,,0.03,WeatherDisplay:10.37,2013-05-29 07:48:00,
2013-05-29 03:53:00,56.5,54.8,29.73,ENE,76,6.9,6.9,94,0.00,CLR,,0.03,WeatherDisplay:10.37,2013-05-29 07:53:00,
2013-05-29 03:58:00,56.6,54.9,29.74,ENE,74,6.9,6.9,94,0.00,CLR,,0.03,WeatherDisplay:10.37,2013-05-29 07:58:00,
2013-05-29 04:03:00,56.6,54.9,29.74,East,81,8.1,8.1,94,0.00,CLR,,0.03,WeatherDisplay:10.37,2013-05-29 08:03:00,
2013-05-29 04:08:00,56.7,55.0,29.74,ENE,63,7.0,7.0,94,0.00,CLR,,0.03,WeatherDisplay:10.37,2013-05-29 08:08:00,
2013-05-29 04:13:00,56.7,55.0,29.74,East,80,10.4,10.4,94,0.00,CLR,,0.03,WeatherDisplay:10.37,2013-05-29 08:13:00,
2013-05-29 04:18:00,56.7,55.0,29.74,East,80,4.6,4.6,94,0.00,CLR,,0.03,WeatherDisplay:10.37,2013-05-29 08:18:00,
2013-05-29 04:23:00,56.8,55.1,29.74,East,86,5.0,5.0,94,0.01,RA,,0.04,WeatherDisplay:10.37,2013-05-29 08:23:00,
2013-05-29 04:28:00,56.8,55.1,29.74,ENE,73,6.9,6.9,94,0.01,RA,,0.04,WeatherDisplay:10.37,2013-05-29 08:28:00,
2013-05-29 04:33:00,56.9,55.2,29.74,East,80,6.9,6.9,94,0.01,CLR,,0.04,WeatherDisplay:10.37,2013-05-29 08:33:00,
2013-05-29 04:38:00,56.9,55.2,29.74,East,86,7.0,7.0,94,0.01,CLR,,0.04,WeatherDisplay:10.37,2013-05-29 08:38:00,
2013-05-29 04:43:00,56.9,55.2,29.74,ENE,63,7.0,7.0,94,0.01,CLR,,0.04,WeatherDisplay:10.37,2013-05-29 08:43:00,
2013-05-29 04:48:00,56.9,55.2,29.74,ENE,71,8.1,8.1,94,0.01,CLR,,0.04,WeatherDisplay:10.37,2013-05-29 08:48:00,
2013-05-29 04:53:00,56.9,55.2,29.74,ENE,67,6.0,6.0,94,0.01,CLR,,0.04,WeatherDisplay:10.37,2013-05-29 08:53:00,
2013-05-29 04:58:00,57.0,55.3,29.75,ENE,63,7.0,7.0,94,0.01,CLR,,0.04,WeatherDisplay:10.37,2013-05-29 08:58:00,
2013-05-29 05:03:00,57.1,55.4,29.74,ENE,76,8.1,8.1,94,0.03,RA,,0.06,WeatherDisplay:10.37,2013-05-29 09:03:00,
2013-05-29 05:08:00,57.1,55.4,29.74,ENE,65,7.0,7.0,94,0.03,RA,,0.06,WeatherDisplay:10.37,2013-05-29 09:08:00,
2013-05-29 05:13:00,57.0,55.3,29.73,NE,56,10.4,10.4,94,0.05,RA,,0.08,WeatherDisplay:10.37,2013-05-29 09:13:00,
2013-05-29 05:18:00,57.1,55.4,29.73,East,79,8.1,8.1,94,0.07,RA,,0.10,WeatherDisplay:10.37,2013-05-29 09:18:00,
2013-05-29 05:23:00,57.0,55.3,29.73,ENE,63,6.9,6.9,94,0.06,RA,,0.10,WeatherDisplay:10.37,2013-05-29 09:23:00,
2013-05-29 05:28:00,57.0,55.3,29.74,ENE,60,3.5,3.5,94,0.07,RA,,0.11,WeatherDisplay:10.37,2013-05-29 09:28:00,
2013-05-29 05:33:00,57.0,55.6,29.74,ENE,67,4.0,4.0,95,0.07,RA,,0.11,WeatherDisplay:10.37,2013-05-29 09:33:00,
2013-05-29 05:38:00,57.1,55.7,29.74,ENE,73,5.8,5.8,95,0.08,RA,,0.12,WeatherDisplay:10.37,2013-05-29 09:38:00,
2013-05-29 05:43:00,57.1,55.7,29.74,ENE,72,7.0,7.0,95,0.08,RA,,0.12,WeatherDisplay:10.37,2013-05-29 09:43:00,
2013-05-29 05:48:00,57.1,55.7,29.74,ENE,69,9.2,9.2,95,0.08,CLR,,0.12,WeatherDisplay:10.37,2013-05-29 09:48:00,
2013-05-29 05:53:00,57.2,55.8,29.75,ESE,103,8.1,8.1,95,0.08,CLR,,0.12,WeatherDisplay:10.37,2013-05-29 09:53:00,
2013-05-29 05:58:00,57.3,55.9,29.74,East,81,7.0,7.0,95,0.08,CLR,,0.12,WeatherDisplay:10.37,2013-05-29 09:58:00,
2013-05-29 06:03:00,57.3,55.9,29.74,ENE,66,7.0,7.0,95,0.08,RA,,0.14,WeatherDisplay:10.37,2013-05-29 10:03:00,
2013-05-29 06:08:00,57.3,55.9,29.74,East,83,5.0,5.0,95,0.08,RA,,0.14,WeatherDisplay:10.37,2013-05-29 10:08:00,
2013-05-29 06:13:00,57.2,55.8,29.74,ENE,69,5.0,5.0,95,0.08,RA,,0.16,WeatherDisplay:10.37,2013-05-29 10:13:00,
2013-05-29 06:18:00,57.3,55.9,29.74,NE,56,9.0,9.0,95,0.07,RA,,0.17,WeatherDisplay:10.37,2013-05-29 10:18:00,
2013-05-29 06:23:00,57.3,55.9,29.74,ENE,65,8.0,8.0,95,0.07,RA,,0.17,WeatherDisplay:10.37,2013-05-29 10:23:00,
2013-05-29 06:28:00,57.4,56.0,29.74,ENE,74,8.1,8.1,95,0.06,,,0.17,WeatherDisplay:10.37,2013-05-29 10:28:00,
2013-05-29 06:33:00,57.4,56.0,29.74,East,88,8.1,8.1,95,0.07,RA,,0.18,WeatherDisplay:10.37,2013-05-29 10:33:00,
2013-05-29 06:38:00,57.4,56.0,29.73,ENE,74,9.2,9.2,95,0.06,RA,,0.18,WeatherDisplay:10.37,2013-05-29 10:38:00,
2013-05-29 06:43:00,57.5,56.1,29.74,East,92,7.0,7.0,95,0.06,,,0.18,WeatherDisplay:10.37,2013-05-29 10:43:00,
2013-05-29 06:48:00,57.5,56.1,29.74,ENE,67,5.0,5.0,95,0.06,CLR,,0.18,WeatherDisplay:10.37,2013-05-29 10:48:00,
2013-05-29 06:53:00,57.6,56.2,29.74,ENE,71,6.0,6.0,95,0.06,CLR,,0.18,WeatherDisplay:10.37,2013-05-29 10:53:00,
2013-05-29 06:58:00,57.7,56.3,29.74,East,79,9.2,9.2,95,0.07,RA,,0.19,WeatherDisplay:10.37,2013-05-29 10:58:00,
2013-05-29 07:03:00,57.7,56.3,29.75,ESE,108,10.0,10.0,95,0.06,RA,,0.20,WeatherDisplay:10.37,2013-05-29 11:03:00,
2013-05-29 07:08:00,57.8,56.4,29.75,ENE,65,9.2,9.2,95,0.09,RA,,0.23,WeatherDisplay:10.37,2013-05-29 11:08:00,
2013-05-29 07:13:00,57.8,56.4,29.75,ENE,75,7.0,7.0,95,0.10,RA,,0.26,WeatherDisplay:10.37,2013-05-29 11:13:00,
2013-05-29 07:18:00,57.8,56.4,29.75,NE,52,8.1,8.1,95,0.11,RA,,0.28,WeatherDisplay:10.37,2013-05-29 11:18:00,
2013-05-29 07:23:00,57.8,56.4,29.75,ENE,66,4.6,4.6,95,0.12,RA,,0.30,WeatherDisplay:10.37,2013-05-29 11:23:00,
2013-05-29 07:28:00,58.0,56.6,29.75,East,83,5.0,5.0,95,0.13,RA,,0.30,WeatherDisplay:10.37,2013-05-29 11:28:00,
2013-05-29 07:33:00,58.0,56.6,29.75,ENE,71,4.6,4.6,95,0.12,,,0.30,WeatherDisplay:10.37,2013-05-29 11:33:00,
2013-05-29 07:38:00,58.1,56.7,29.75,East,80,6.0,6.0,95,0.12,CLR,,0.30,WeatherDisplay:10.37,2013-05-29 11:38:00,
2013-05-29 07:43:00,58.2,56.8,29.75,East,80,1.2,1.2,95,0.12,CLR,,0.30,WeatherDisplay:10.37,2013-05-29 11:43:00,
2013-05-29 07:48:00,58.2,56.8,29.75,ENE,77,2.3,2.3,95,0.12,CLR,,0.30,WeatherDisplay:10.37,2013-05-29 11:48:00,
2013-05-29 07:53:00,58.2,56.8,29.75,ENE,69,4.6,4.6,95,0.12,CLR,,0.30,WeatherDisplay:10.37,2013-05-29 11:53:00,
2013-05-29 07:58:00,58.2,56.8,29.75,ENE,71,4.6,4.6,95,0.12,RA,,0.31,WeatherDisplay:10.37,2013-05-29 11:58:00,
2013-05-29 08:03:00,58.2,56.8,29.74,ENE,63,6.9,6.9,95,0.12,RA,,0.32,WeatherDisplay:10.37,2013-05-29 12:03:00,
2013-05-29 08:08:00,58.3,56.9,29.73,ENE,64,8.1,8.1,95,0.09,RA,,0.32,WeatherDisplay:10.37,2013-05-29 12:08:00,
2013-05-29 08:13:00,58.4,57.0,29.73,East,99,8.1,8.1,95,0.06,CLR,,0.32,WeatherDisplay:10.37,2013-05-29 12:13:00,
2013-05-29 08:18:00,58.4,57.0,29.72,ENE,73,8.0,8.0,95,0.04,CLR,,0.32,WeatherDisplay:10.37,2013-05-29 12:18:00,
2013-05-29 08:23:00,58.6,57.5,29.73,East,81,5.0,5.0,96,0.03,RA,,0.33,WeatherDisplay:10.37,2013-05-29 12:23:00,
2013-05-29 08:28:00,58.9,57.8,29.74,ENE,74,7.0,7.0,96,0.03,RA,,0.33,WeatherDisplay:10.37,2013-05-29 12:28:00,
2013-05-29 08:33:00,59.3,58.2,29.74,East,91,5.8,5.8,96,0.03,CLR,,0.33,WeatherDisplay:10.37,2013-05-29 12:33:00,
2013-05-29 08:38:00,59.6,58.5,29.74,ENE,76,3.5,3.5,96,0.03,CLR,,0.33,WeatherDisplay:10.37,2013-05-29 12:38:00,
2013-05-29 08:43:00,60.0,58.9,29.74,ENE,77,7.0,7.0,96,0.03,CLR,,0.33,WeatherDisplay:10.37,2013-05-29 12:43:00,
2013-05-29 08:48:00,60.0,58.9,29.75,East,92,6.0,6.0,96,0.03,CLR,,0.33,WeatherDisplay:10.37,2013-05-29 12:48:00,
2013-05-29 08:53:00,60.2,59.1,29.75,East,90,5.0,5.0,96,0.03,CLR,,0.33,WeatherDisplay:10.37,2013-05-29 12:53:00,
2013-05-29 08:58:00,60.1,59.0,29.75,East,90,1.2,0.0,96,0.02,CLR,,0.33,WeatherDisplay:10.37,2013-05-29 12:58:00,
2013-05-29 09:03:00,60.0,58.9,29.75,East,82,5.8,5.8,96,0.01,CLR,,0.33,WeatherDisplay:10.37,2013-05-29 13:03:00,
2013-05-29 09:08:00,60.1,59.0,29.75,East,95,2.3,2.3,96,0.01,CLR,,0.33,WeatherDisplay:10.37,2013-05-29 13:08:00,
2013-05-29 09:13:00,60.2,59.1,29.74,East,98,6.0,6.0,96,0.01,CLR,,0.33,WeatherDisplay:10.37,2013-05-29 13:13:00,
2013-05-29 09:18:00,60.2,59.1,29.74,East,101,8.1,8.1,96,0.01,CLR,,0.33,WeatherDisplay:10.37,2013-05-29 13:18:00,
2013-05-29 09:23:00,60.2,58.8,29.73,East,100,9.0,9.0,95,0.01,RA,,0.34,WeatherDisplay:10.37,2013-05-29 13:23:00,
2013-05-29 09:28:00,60.1,58.7,29.72,ESE,105,10.4,10.4,95,0.02,RA,,0.35,WeatherDisplay:10.37,2013-05-29 13:28:00,
2013-05-29 09:33:00,60.3,58.9,29.72,ESE,115,8.1,8.1,95,0.03,RA,,0.36,WeatherDisplay:10.37,2013-05-29 13:33:00,
2013-05-29 09:38:00,60.8,59.7,29.72,ESE,115,9.2,9.2,96,0.03,RA,,0.36,WeatherDisplay:10.37,2013-05-29 13:38:00,
2013-05-29 09:43:00,61.1,60.0,29.73,ESE,120,5.0,5.0,96,0.03,CLR,,0.36,WeatherDisplay:10.37,2013-05-29 13:43:00,
2013-05-29 09:48:00,61.4,60.2,29.73,SE,126,7.0,7.0,96,0.03,CLR,,0.36,WeatherDisplay:10.37,2013-05-29 13:48:00,
2013-05-29 09:53:00,62.0,60.8,29.73,SE,132,5.8,5.8,96,0.03,CLR,,0.36,WeatherDisplay:10.37,2013-05-29 13:53:00,
2013-05-29 09:58:00,63.1,61.9,29.73,ESE,120,7.0,7.0,96,0.03,CLR,,0.36,WeatherDisplay:10.37,2013-05-29 13:58:00,
2013-05-29 10:03:00,64.1,62.9,29.73,SE,131,4.6,4.6,96,0.03,CLR,,0.36,WeatherDisplay:10.37,2013-05-29 14:03:00,
2013-05-29 10:08:00,64.3,63.1,29.73,SE,130,4.6,4.6,96,0.03,CLR,,0.36,WeatherDisplay:10.37,2013-05-29 14:08:00,
2013-05-29 10:13:00,64.7,63.2,29.74,ESE,104,6.9,6.9,95,0.03,CLR,,0.36,WeatherDisplay:10.37,2013-05-29 14:13:00,
2013-05-29 10:18:00,65.0,63.2,29.74,SE,126,5.8,5.8,94,0.03,CLR,,0.36,WeatherDisplay:10.37,2013-05-29 14:18:00,
2013-05-29 10:23:00,65.4,63.6,29.73,SE,134,5.0,5.0,94,0.02,CLR,,0.36,WeatherDisplay:10.37,2013-05-29 14:23:00,
2013-05-29 10:28:00,66.2,64.4,29.73,SE,133,8.1,8.1,94,0.01,CLR,,0.36,WeatherDisplay:10.37,2013-05-29 14:28:00,
2013-05-29 10:33:00,67.3,65.2,29.73,SE,136,8.1,8.1,93,0.00,CLR,,0.36,WeatherDisplay:10.37,2013-05-29 14:33:00,
2013-05-29 10:38:00,67.8,65.4,29.72,SSE,148,8.1,8.1,92,0.00,CLR,,0.36,WeatherDisplay:10.37,2013-05-29 14:38:00,
2013-05-29 10:43:00,68.1,65.7,29.71,East,88,9.2,9.2,92,0.00,CLR,,0.36,WeatherDisplay:10.37,2013-05-29 14:43:00,
2013-05-29 10:48:00,68.9,66.2,29.71,SSE,163,9.2,9.2,91,0.00,CLR,,0.36,WeatherDisplay:10.37,2013-05-29 14:48:00,
2013-05-29 10:53:00,69.5,66.1,29.71,South,173,9.2,9.2,89,0.00,CLR,,0.36,WeatherDisplay:10.37,2013-05-29 14:53:00,
2013-05-29 10:58:00,69.8,66.4,29.71,SSE,150,9.2,9.2,89,0.00,CLR,,0.36,WeatherDisplay:10.37,2013-05-29 14:58:00,
2013-05-29 11:03:00,70.5,66.8,29.71,South,175,8.1,8.1,88,0.00,CLR,,0.36,WeatherDisplay:10.37,2013-05-29 15:03:00,
2013-05-29 11:08:00,70.8,66.4,29.71,SE,134,10.4,10.4,86,0.00,CLR,,0.36,WeatherDisplay:10.37,2013-05-29 15:08:00,
2013-05-29 11:13:00,71.1,66.0,29.72,SSE,165,9.2,9.2,84,0.00,CLR,,0.36,WeatherDisplay:10.37,2013-05-29 15:13:00,
2013-05-29 11:18:00,71.1,66.4,29.71,South,183,8.1,8.1,85,0.00,CLR,,0.36,WeatherDisplay:10.37,2013-05-29 15:18:00,
2013-05-29 11:23:00,71.5,66.8,29.71,South,169,7.0,7.0,85,0.00,CLR,,0.36,WeatherDisplay:10.37,2013-05-29 15:23:00,
2013-05-29 11:28:00,72.0,66.9,29.71,South,174,9.2,9.2,84,0.00,CLR,,0.36,WeatherDisplay:10.37,2013-05-29 15:28:00,
2013-05-29 11:33:00,72.3,66.8,29.71,SSE,148,8.1,8.1,83,0.00,CLR,,0.36,WeatherDisplay:10.37,2013-05-29 15:33:00,
2013-05-29 11:38:00,72.3,66.5,29.71,South,178,8.0,8.0,82,0.00,CLR,,0.36,WeatherDisplay:10.37,2013-05-29 15:38:00,
2013-05-29 11:43:00,72.2,66.4,29.71,SSE,148,4.6,4.6,82,0.00,CLR,,0.36,WeatherDisplay:10.37,2013-05-29 15:43:00,
2013-05-29 11:48:00,72.3,66.8,29.71,SSE,148,6.0,6.0,83,0.00,CLR,,0.36,WeatherDisplay:10.37,2013-05-29 15:48:00,
2013-05-29 11:53:00,73.1,66.9,29.71,SE,134,10.4,10.4,81,0.00,CLR,,0.36,WeatherDisplay:10.37,2013-05-29 15:53:00,
2013-05-29 11:58:00,73.7,67.1,29.71,SSE,161,10.0,10.0,80,0.00,CLR,,0.36,WeatherDisplay:10.37,2013-05-29 15:58:00,
2013-05-29 12:03:00,73.6,67.0,29.71,SE,134,5.8,5.8,80,0.00,CLR,,0.36,WeatherDisplay:10.37,2013-05-29 16:03:00,
2013-05-29 12:08:00,73.6,66.7,29.71,South,182,4.0,4.0,79,0.00,CLR,,0.36,WeatherDisplay:10.37,2013-05-29 16:08:00,
2013-05-29 12:13:00,74.4,66.7,29.70,South,169,9.2,9.2,77,0.00,CLR,,0.36,WeatherDisplay:10.37,2013-05-29 16:13:00,
2013-05-29 12:18:00,75.2,66.7,29.71,SW,219,9.0,9.0,75,0.00,CLR,,0.36,WeatherDisplay:10.37,2013-05-29 16:18:00,
2013-05-29 12:23:00,75.3,66.8,29.71,SW,215,10.4,10.4,75,0.00,CLR,,0.36,WeatherDisplay:10.37,2013-05-29 16:23:00,
2013-05-29 12:28:00,75.7,66.8,29.70,SSW,207,9.2,9.2,74,0.00,CLR,,0.36,WeatherDisplay:10.37,2013-05-29 16:28:00,
2013-05-29 12:33:00,76.1,66.8,29.71,SSW,205,12.7,12.7,73,0.00,CLR,,0.36,WeatherDisplay:10.37,2013-05-29 16:33:00,
2013-05-29 12:38:00,76.8,66.7,29.71,SSW,209,11.5,11.5,71,0.00,CLR,,0.36,WeatherDisplay:10.37,2013-05-29 16:38:00,
2013-05-29 12:43:00,76.7,66.6,29.70,SW,220,8.1,8.1,71,0.00,CLR,,0.36,WeatherDisplay:10.37,2013-05-29 16:43:00,
2013-05-29 12:48:00,77.2,66.2,29.70,SSW,194,18.4,18.4,69,0.00,CLR,,0.36,WeatherDisplay:10.37,2013-05-29 16:48:00,
2013-05-29 12:53:00,77.3,65.9,29.70,WSW,246,15.0,15.0,68,0.00,CLR,,0.36,WeatherDisplay:10.37,2013-05-29 16:53:00,
2013-05-29 12:58:00,77.1,65.7,29.71,SW,232,15.0,15.0,68,0.00,CLR,,0.36,WeatherDisplay:10.37,2013-05-29 16:58:00,
2013-05-29 13:03:00,77.4,66.4,29.70,SSW,205,12.0,12.0,69,0.00,CLR,,0.36,WeatherDisplay:10.37,2013-05-29 17:03:00,
2013-05-29 13:08:00,78.0,67.0,29.71,West,263,14.0,14.0,69,0.00,CLR,,0.36,WeatherDisplay:10.37,2013-05-29 17:08:00,
2013-05-29 13:13:00,78.4,67.0,29.71,SSW,205,16.1,16.1,68,0.00,CLR,,0.36,WeatherDisplay:10.37,2013-05-29 17:13:00,
2013-05-29 13:18:00,78.5,67.1,29.71,WSW,237,13.0,13.0,68,0.00,CLR,,0.36,WeatherDisplay:10.37,2013-05-29 17:18:00,
2013-05-29 13:23:00,78.4,66.1,29.71,SW,234,16.1,16.1,66,0.00,CLR,,0.36,WeatherDisplay:10.37,2013-05-29 17:23:00,
2013-05-29 13:28:00,78.2,66.3,29.71,SSW,211,14.0,14.0,67,0.00,CLR,,0.36,WeatherDisplay:10.37,2013-05-29 17:28:00,
2013-05-29 13:33:00,78.4,66.5,29.70,WSW,241,13.0,13.0,67,0.00,CLR,,0.36,WeatherDisplay:10.37,2013-05-29 17:33:00,
2013-05-29 13:38:00,78.7,67.2,29.70,SW,232,9.2,9.2,68,0.00,CLR,,0.36,WeatherDisplay:10.37,2013-05-29 17:38:00,
2013-05-29 13:43:00,79.2,66.9,29.70,WSW,242,17.3,17.3,66,0.00,CLR,,0.36,WeatherDisplay:10.37,2013-05-29 17:43:00,
2013-05-29 13:48:00,79.3,66.5,29.70,SW,231,18.0,18.0,65,0.00,CLR,,0.36,WeatherDisplay:10.37,2013-05-29 17:48:00,
2013-05-29 13:53:00,79.6,65.9,29.70,SW,226,19.6,19.6,63,0.00,CLR,,0.36,WeatherDisplay:10.37,2013-05-29 17:53:00,
2013-05-29 13:58:00,79.5,66.7,29.70,SSW,213,11.5,11.5,65,0.00,CLR,,0.36,WeatherDisplay:10.37,2013-05-29 17:58:00,
2013-05-29 14:03:00,79.1,66.3,29.70,WSW,250,11.5,11.5,65,0.00,CLR,,0.36,WeatherDisplay:10.37,2013-05-29 18:03:00,
2013-05-29 14:08:00,79.2,66.4,29.70,WSW,239,11.5,11.5,65,0.00,CLR,,0.36,WeatherDisplay:10.37,2013-05-29 18:08:00,
2013-05-29 14:13:00,79.5,67.1,29.70,SSW,209,11.0,11.0,66,0.00,CLR,,0.36,WeatherDisplay:10.37,2013-05-29 18:13:00,
2013-05-29 14:18:00,79.8,66.1,29.70,SSW,211,13.8,13.8,63,0.00,CLR,,0.36,WeatherDisplay:10.37,2013-05-29 18:18:00,
2013-05-29 14:23:00,79.1,66.3,29.70,WSW,242,11.5,11.5,65,0.00,CLR,,0.36,WeatherDisplay:10.37,2013-05-29 18:23:00,
2013-05-29 14:28:00,79.3,66.1,29.70,WSW,238,9.2,9.2,64,0.00,CLR,,0.36,WeatherDisplay:10.37,2013-05-29 18:28:00,
2013-05-29 14:33:00,79.2,66.9,29.70,WSW,246,6.0,6.0,66,0.00,CLR,,0.36,WeatherDisplay:10.37,2013-05-29 18:33:00,
2013-05-29 14:38:00,78.9,66.1,29.70,SW,220,8.1,8.1,65,0.00,CLR,,0.36,WeatherDisplay:10.37,2013-05-29 18:38:00,
2013-05-29 14:43:00,78.5,66.2,29.70,WSW,238,8.1,8.1,66,0.00,CLR,,0.36,WeatherDisplay:10.37,2013-05-29 18:43:00,
2013-05-29 14:48:00,78.4,67.0,29.71,West,271,4.0,4.0,68,0.00,CLR,,0.36,WeatherDisplay:10.37,2013-05-29 18:48:00,
2013-05-29 14:53:00,78.5,66.6,29.70,WSW,254,4.0,4.0,67,0.00,CLR,,0.36,WeatherDisplay:10.37,2013-05-29 18:53:00,
2013-05-29 14:58:00,78.9,67.0,29.70,WSW,237,3.5,3.5,67,0.00,CLR,,0.36,WeatherDisplay:10.37,2013-05-29 18:58:00,
2013-05-29 15:03:00,79.1,66.8,29.70,SW,220,8.1,8.1,66,0.00,CLR,,0.36,WeatherDisplay:10.37,2013-05-29 19:03:00,
2013-05-29 15:08:00,79.2,67.3,29.69,SSW,211,6.0,6.0,67,0.00,CLR,,0.36,WeatherDisplay:10.37,2013-05-29 19:08:00,
2013-05-29 15:13:00,79.1,67.2,29.69,WSW,253,6.0,6.0,67,0.00,CLR,,0.36,WeatherDisplay:10.37,2013-05-29 19:13:00,
2013-05-29 15:18:00,79.2,67.3,29.69,SSW,207,5.8,5.8,67,0.00,CLR,,0.36,WeatherDisplay:10.37,2013-05-29 19:18:00,
2013-05-29 15:23:00,79.2,67.3,29.69,SW,221,3.5,3.5,67,0.00,CLR,,0.36,WeatherDisplay:10.37,2013-05-29 19:23:00,
2013-05-29 15:28:00,79.1,67.6,29.69,SSW,211,6.0,6.0,68,0.00,CLR,,0.36,WeatherDisplay:10.37,2013-05-29 19:28:00,
2013-05-29 15:33:00,79.0,66.2,29.69,SW,232,8.1,8.1,65,0.00,CLR,,0.36,WeatherDisplay:10.37,2013-05-29 19:33:00,
2013-05-29 15:38:00,78.8,66.9,29.69,SW,225,4.6,4.6,67,0.00,CLR,,0.36,WeatherDisplay:10.37,2013-05-29 19:38:00,
2013-05-29 15:43:00,78.6,66.7,29.69,WSW,238,3.5,3.5,67,0.00,CLR,,0.36,WeatherDisplay:10.37,2013-05-29 19:43:00,
2013-05-29 15:48:00,78.5,67.1,29.69,WSW,238,3.0,3.0,68,0.00,CLR,,0.36,WeatherDisplay:10.37,2013-05-29 19:48:00,
2013-05-29 15:53:00,78.4,67.0,29.69,SW,229,3.5,3.5,68,0.00,CLR,,0.36,WeatherDisplay:10.37,2013-05-29 19:53:00,
2013-05-29 15:58:00,78.2,67.2,29.68,SW,229,0.0,0.0,69,0.00,CLR,,0.36,WeatherDisplay:10.37,2013-05-29 19:58:00,
2013-05-29 16:03:00,78.1,67.1,29.68,SW,229,0.0,0.0,69,0.00,CLR,,0.36,WeatherDisplay:10.37,2013-05-29 20:03:00,
2013-05-29 16:08:00,78.5,67.1,29.68,SW,229,0.0,0.0,68,0.00,CLR,,0.36,WeatherDisplay:10.37,2013-05-29 20:08:00,
2013-05-29 16:13:00,78.7,67.2,29.68,SW,229,1.0,0.0,68,0.00,CLR,,0.36,WeatherDisplay:10.37,2013-05-29 20:13:00,
2013-05-29 16:18:00,78.9,67.0,29.69,SW,229,3.5,3.5,67,0.00,CLR,,0.36,WeatherDisplay:10.37,2013-05-29 20:18:00,
2013-05-29 16:23:00,79.1,67.6,29.69,SSW,213,3.5,3.5,68,0.00,CLR,,0.36,WeatherDisplay:10.37,2013-05-29 20:23:00,
2013-05-29 16:28:00,79.1,67.2,29.69,SW,223,5.8,5.8,67,0.00,CLR,,0.36,WeatherDisplay:10.37,2013-05-29 20:28:00,
2013-05-29 16:33:00,79.1,67.6,29.68,SW,225,3.0,3.0,68,0.00,CLR,,0.36,WeatherDisplay:10.37,2013-05-29 20:33:00,
2013-05-29 16:38:00,79.2,67.7,29.67,SW,225,1.2,0.0,68,0.00,CLR,,0.36,WeatherDisplay:10.37,2013-05-29 20:38:00,
2013-05-29 16:43:00,79.2,68.1,29.66,SW,233,0.0,0.0,69,0.00,CLR,,0.36,WeatherDisplay:10.37,2013-05-29 20:43:00,
2013-05-29 16:48:00,79.0,68.0,29.66,NNW,340,2.3,2.3,69,0.00,CLR,,0.36,WeatherDisplay:10.37,2013-05-29 20:48:00,
2013-05-29 16:53:00,78.7,67.7,29.65,NNW,348,2.3,2.3,69,0.00,CLR,,0.36,WeatherDisplay:10.37,2013-05-29 20:53:00,
2013-05-29 16:58:00,78.2,68.0,29.66,North,355,3.5,3.5,71,0.01,RA,,0.38,WeatherDisplay:10.37,2013-05-29 20:58:00,
2013-05-29 17:03:00,77.1,67.8,29.67,SE,128,15.0,15.0,73,0.16,RA,,0.52,WeatherDisplay:10.37,2013-05-29 21:03:00,
2013-05-29 17:08:00,75.5,66.2,29.67,South,184,6.0,6.0,73,0.16,RA,,0.52,WeatherDisplay:10.37,2013-05-29 21:08:00,
2013-05-29 17:13:00,75.0,66.5,29.66,South,170,4.6,4.6,75,0.16,,,0.52,WeatherDisplay:10.37,2013-05-29 21:13:00,
2013-05-29 17:18:00,74.4,67.5,29.65,South,182,0.0,0.0,79,0.16,CLR,,0.52,WeatherDisplay:10.37,2013-05-29 21:18:00,
2013-05-29 17:23:00,73.9,67.7,29.64,North,360,4.6,4.6,81,0.16,CLR,,0.52,WeatherDisplay:10.37,2013-05-29 21:23:00,
2013-05-29 17:28:00,73.5,68.0,29.66,North,349,3.5,3.5,83,0.16,CLR,,0.52,WeatherDisplay:10.37,2013-05-29 21:28:00,
2013-05-29 17:33:00,73.4,68.3,29.66,NNW,328,7.0,7.0,84,0.16,CLR,,0.52,WeatherDisplay:10.37,2013-05-29 21:33:00,
2013-05-29 17:38:00,73.4,68.3,29.67,WNW,296,12.0,12.0,84,0.16,CLR,,0.52,WeatherDisplay:10.37,2013-05-29 21:38:00,
2013-05-29 17:43:00,72.6,67.5,29.77,WSW,257,26.0,26.0,84,0.20,RA,,0.58,WeatherDisplay:10.37,2013-05-29 21:43:00,
2013-05-29 17:48:00,70.5,65.8,29.71,NW,325,10.4,10.4,85,0.44,RA,,0.80,WeatherDisplay:10.37,2013-05-29 21:48:00,
2013-05-29 17:53:00,68.5,63.5,29.70,WNW,300,5.8,5.8,84,0.48,RA,,0.84,WeatherDisplay:10.37,2013-05-29 21:53:00,
2013-05-29 17:58:00,67.5,63.5,29.71,WNW,288,3.5,3.5,87,0.47,RA,,0.84,WeatherDisplay:10.37,2013-05-29 21:58:00,
2013-05-29 18:03:00,67.2,63.8,29.71,WSW,256,5.8,5.8,89,0.33,RA,,0.85,WeatherDisplay:10.37,2013-05-29 22:03:00,
2013-05-29 18:08:00,67.1,64.1,29.70,West,262,0.0,0.0,90,0.34,RA,,0.86,WeatherDisplay:10.37,2013-05-29 22:08:00,
2013-05-29 18:13:00,66.9,63.9,29.71,SSE,153,8.0,8.0,90,0.34,RA,,0.86,WeatherDisplay:10.37,2013-05-29 22:13:00,
2013-05-29 18:18:00,66.3,63.6,29.72,SSE,162,8.1,8.1,91,0.34,,,0.86,WeatherDisplay:10.37,2013-05-29 22:18:00,
2013-05-29 18:23:00,65.9,63.5,29.72,South,189,6.0,6.0,92,0.34,CLR,,0.86,WeatherDisplay:10.37,2013-05-29 22:23:00,
2013-05-29 18:28:00,66.2,64.1,29.72,SSW,197,7.0,7.0,93,0.34,CLR,,0.86,WeatherDisplay:10.37,2013-05-29 22:28:00,
2013-05-29 18:33:00,66.3,63.9,29.72,South,186,5.0,5.0,92,0.34,CLR,,0.86,WeatherDisplay:10.37,2013-05-29 22:33:00,
2013-05-29 18:38:00,66.4,64.3,29.71,SSE,163,4.6,4.6,93,0.34,CLR,,0.86,WeatherDisplay:10.37,2013-05-29 22:38:00,
2013-05-29 18:43:00,66.6,64.5,29.72,South,171,8.1,8.1,93,0.30,CLR,,0.86,WeatherDisplay:10.37,2013-05-29 22:43:00,
2013-05-29 18:48:00,66.7,64.6,29.71,SSE,154,4.0,4.0,93,0.06,CLR,,0.86,WeatherDisplay:10.37,2013-05-29 22:48:00,
2013-05-29 18:53:00,67.1,65.0,29.71,ESE,118,6.0,6.0,93,0.02,CLR,,0.86,WeatherDisplay:10.37,2013-05-29 22:53:00,
2013-05-29 18:58:00,67.1,64.7,29.71,SE,136,4.6,4.6,92,0.02,CLR,,0.86,WeatherDisplay:10.37,2013-05-29 22:58:00,
2013-05-29 19:03:00,67.2,64.8,29.70,SE,132,5.0,5.0,92,0.01,CLR,,0.86,WeatherDisplay:10.37,2013-05-29 23:03:00,
2013-05-29 19:08:00,67.2,64.8,29.70,SE,134,5.8,5.8,92,0.00,CLR,,0.86,WeatherDisplay:10.37,2013-05-29 23:08:00,
2013-05-29 19:13:00,67.3,64.9,29.70,ESE,119,7.0,7.0,92,0.00,CLR,,0.86,WeatherDisplay:10.37,2013-05-29 23:13:00,
2013-05-29 19:18:00,67.1,64.4,29.70,SE,128,4.6,4.6,91,0.00,CLR,,0.86,WeatherDisplay:10.37,2013-05-29 23:18:00,
2013-05-29 19:23:00,67.2,64.8,29.70,SE,138,5.0,5.0,92,0.00,CLR,,0.86,WeatherDisplay:10.37,2013-05-29 23:23:00,
2013-05-29 19:28:00,67.1,64.7,29.70,SE,143,3.5,3.5,92,0.00,CLR,,0.86,WeatherDisplay:10.37,2013-05-29 23:28:00,
2013-05-29 19:33:00,67.2,64.8,29.70,SE,130,4.6,4.6,92,0.00,CLR,,0.86,WeatherDisplay:10.37,2013-05-29 23:33:00,
2013-05-29 19:38:00,67.1,64.7,29.70,SE,128,2.3,2.3,92,0.00,CLR,,0.86,WeatherDisplay:10.37,2013-05-29 23:38:00,
2013-05-29 19:43:00,67.1,64.7,29.71,SE,130,3.0,3.0,92,0.00,CLR,,0.86,WeatherDisplay:10.37,2013-05-29 23:43:00,
2013-05-29 19:48:00,67.1,64.7,29.71,SE,128,5.0,5.0,92,0.00,CLR,,0.86,WeatherDisplay:10.37,2013-05-29 23:48:00,
2013-05-29 19:53:00,67.0,64.6,29.71,SE,125,4.6,4.6,92,0.00,CLR,,0.86,WeatherDisplay:10.37,2013-05-29 23:53:00,
2013-05-29 19:58:00,66.8,64.4,29.71,SE,126,5.0,5.0,92,0.00,CLR,,0.86,WeatherDisplay:10.37,2013-05-29 23:58:00,
2013-05-29 20:03:00,66.6,64.5,29.71,ESE,121,5.8,5.8,93,0.00,CLR,,0.86,WeatherDisplay:10.37,2013-05-30 00:03:00,
2013-05-29 20:08:00,66.2,64.1,29.71,ESE,119,4.0,4.0,93,0.00,CLR,,0.86,WeatherDisplay:10.37,2013-05-30 00:08:00,
2013-05-29 20:13:00,66.0,63.9,29.71,ESE,112,6.9,6.9,93,0.00,CLR,,0.86,WeatherDisplay:10.37,2013-05-30 00:13:00,
2013-05-29 20:18:00,65.8,63.7,29.72,ESE,106,4.6,4.6,93,0.00,CLR,,0.86,WeatherDisplay:10.37,2013-05-30 00:18:00,
2013-05-29 20:23:00,65.6,63.5,29.72,ESE,117,4.0,4.0,93,0.00,CLR,,0.86,WeatherDisplay:10.37,2013-05-30 00:23:00,
2013-05-29 20:28:00,65.5,63.4,29.72,ESE,109,4.0,4.0,93,0.00,CLR,,0.86,WeatherDisplay:10.37,2013-05-30 00:28:00,
2013-05-29 20:33:00,65.5,63.7,29.72,ESE,117,5.0,5.0,94,0.00,CLR,,0.86,WeatherDisplay:10.37,2013-05-30 00:33:00,
2013-05-29 20:38:00,65.0,62.9,29.72,ESE,120,4.6,4.6,93,0.00,CLR,,0.86,WeatherDisplay:10.37,2013-05-30 00:38:00,
2013-05-29 20:43:00,64.7,62.9,29.73,SE,125,4.0,4.0,94,0.00,CLR,,0.86,WeatherDisplay:10.37,2013-05-30 00:43:00,
2013-05-29 20:48:00,64.5,62.7,29.73,SE,134,4.0,4.0,94,0.00,CLR,,0.86,WeatherDisplay:10.37,2013-05-30 00:48:00,
2013-05-29 20:53:00,64.3,62.5,29.73,SE,134,4.0,4.0,94,0.00,CLR,,0.86,WeatherDisplay:10.37,2013-05-30 00:53:00,
2013-05-29 20:58:00,64.1,62.3,29.72,SE,134,3.5,3.5,94,0.00,CLR,,0.86,WeatherDisplay:10.37,2013-05-30 00:58:00,
2013-05-29 21:03:00,63.8,62.0,29.72,SE,134,3.5,3.5,94,0.00,CLR,,0.86,WeatherDisplay:10.37,2013-05-30 01:03:00,
2013-05-29 21:08:00,63.5,61.7,29.72,SE,134,3.5,3.5,94,0.00,CLR,,0.86,WeatherDisplay:10.37,2013-05-30 01:08:00,
2013-05-29 21:13:00,63.5,61.7,29.72,SE,134,3.5,3.5,94,0.00,CLR,,0.86,WeatherDisplay:10.37,2013-05-30 01:13:00,
2013-05-29 21:18:00,63.4,61.6,29.73,SE,134,3.5,3.5,94,0.00,CLR,,0.86,WeatherDisplay:10.37,2013-05-30 01:18:00,
2013-05-29 21:23:00,63.4,61.9,29.73,SE,133,3.5,3.5,95,0.00,CLR,,0.86,WeatherDisplay:10.37,2013-05-30 01:23:00,
2013-05-29 21:28:00,63.5,62.0,29.73,SE,132,3.5,3.5,95,0.00,CLR,,0.86,WeatherDisplay:10.37,2013-05-30 01:28:00,
2013-05-29 21:33:00,63.8,62.3,29.73,ESE,117,4.6,4.6,95,0.00,CLR,,0.86,WeatherDisplay:10.37,2013-05-30 01:33:00,
2013-05-29 21:38:00,64.0,62.5,29.73,ESE,114,5.0,5.0,95,0.00,CLR,,0.86,WeatherDisplay:10.37,2013-05-30 01:38:00,
2013-05-29 21:43:00,64.2,62.7,29.74,ESE,113,5.0,5.0,95,0.00,CLR,,0.86,WeatherDisplay:10.37,2013-05-30 01:43:00,
2013-05-29 21:48:00,64.5,63.0,29.74,ESE,109,7.0,7.0,95,0.00,CLR,,0.86,WeatherDisplay:10.37,2013-05-30 01:48:00,
2013-05-29 21:53:00,64.6,63.1,29.74,ESE,111,5.0,5.0,95,0.00,CLR,,0.86,WeatherDisplay:10.37,2013-05-30 01:53:00,
2013-05-29 21:58:00,64.7,63.2,29.74,ESE,113,6.9,6.9,95,0.00,CLR,,0.86,WeatherDisplay:10.37,2013-05-30 01:58:00,
2013-05-29 22:03:00,64.7,63.2,29.74,ESE,111,5.0,5.0,95,0.00,CLR,,0.86,WeatherDisplay:10.37,2013-05-30 02:03:00,
2013-05-29 22:08:00,64.7,63.2,29.75,ESE,111,5.0,5.0,95,0.00,CLR,,0.86,WeatherDisplay:10.37,2013-05-30 02:08:00,
2013-05-29 22:13:00,64.6,63.1,29.75,ESE,105,3.5,3.5,95,0.00,CLR,,0.86,WeatherDisplay:10.37,2013-05-30 02:13:00,
2013-05-29 22:18:00,64.4,62.9,29.75,ESE,103,3.5,3.5,95,0.00,CLR,,0.86,WeatherDisplay:10.37,2013-05-30 02:18:00,
2013-05-29 22:23:00,64.1,62.6,29.75,ESE,103,3.5,3.5,95,0.00,CLR,,0.86,WeatherDisplay:10.37,2013-05-30 02:23:00,
2013-05-29 22:28:00,64.0,62.5,29.75,ESE,103,2.3,2.3,95,0.00,CLR,,0.86,WeatherDisplay:10.37,2013-05-30 02:28:00,
2013-05-29 22:33:00,63.9,62.4,29.75,ESE,103,3.5,3.5,95,0.00,CLR,,0.86,WeatherDisplay:10.37,2013-05-30 02:33:00,
2013-05-29 22:38:00,63.9,62.4,29.75,ESE,111,3.5,3.5,95,0.00,CLR,,0.86,WeatherDisplay:10.37,2013-05-30 02:38:00,
2013-05-29 22:43:00,63.7,62.2,29.75,SE,125,4.0,4.0,95,0.00,CLR,,0.86,WeatherDisplay:10.37,2013-05-30 02:43:00,
2013-05-29 22:48:00,63.5,61.7,29.75,ESE,107,4.0,4.0,94,0.00,CLR,,0.86,WeatherDisplay:10.37,2013-05-30 02:48:00,
2013-05-29 22:53:00,64.0,62.5,29.75,ESE,106,3.5,3.5,95,0.00,CLR,,0.86,WeatherDisplay:10.37,2013-05-30 02:53:00,
2013-05-29 22:58:00,64.0,62.5,29.75,ESE,106,0.0,0.0,95,0.00,CLR,,0.86,WeatherDisplay:10.37,2013-05-30 02:58:00,
2013-05-29 23:03:00,63.7,61.9,29.75,ESE,106,0.0,0.0,94,0.00,CLR,,0.86,WeatherDisplay:10.37,2013-05-30 03:03:00,
2013-05-29 23:08:00,63.4,61.9,29.75,ESE,106,0.0,0.0,95,0.00,CLR,,0.86,WeatherDisplay:10.37,2013-05-30 03:08:00,
2013-05-29 23:13:00,63.2,61.4,29.75,ESE,106,0.0,0.0,94,0.00,CLR,,0.86,WeatherDisplay:10.37,2013-05-30 03:13:00,
2013-05-29 23:18:00,63.7,62.2,29.76,ESE,106,0.0,0.0,95,0.00,CLR,,0.86,WeatherDisplay:10.37,2013-05-30 03:18:00,
2013-05-29 23:23:00,63.5,62.0,29.76,ESE,106,0.0,0.0,95,0.00,CLR,,0.86,WeatherDisplay:10.37,2013-05-30 03:23:00,
2013-05-29 23:28:00,63.2,61.4,29.76,ESE,106,0.0,0.0,94,0.00,CLR,,0.86,WeatherDisplay:10.37,2013-05-30 03:28:00,
2013-05-29 23:33:00,63.0,61.5,29.76,ESE,106,0.0,0.0,95,0.00,CLR,,0.86,WeatherDisplay:10.37,2013-05-30 03:33:00,
2013-05-29 23:38:00,63.0,61.5,29.76,ESE,106,0.0,0.0,95,0.00,CLR,,0.86,WeatherDisplay:10.37,2013-05-30 03:38:00,
2013-05-29 23:43:00,62.6,61.1,29.76,ESE,106,0.0,0.0,95,0.00,CLR,,0.86,WeatherDisplay:10.37,2013-05-30 03:43:00,
2013-05-29 23:48:00,62.2,60.8,29.76,ESE,106,0.0,0.0,95,0.00,CLR,,0.86,WeatherDisplay:10.37,2013-05-30 03:48:00,
2013-05-29 23:53:00,61.9,60.5,29.76,ESE,106,0.0,0.0,95,0.00,CLR,,0.86,WeatherDisplay:10.37,2013-05-30 03:53:00,
2013-05-29 23:58:00,62.1,60.7,29.76,ESE,106,0.0,0.0,95,0.00,CLR,,0.86,WeatherDisplay:10.37,2013-05-30 03:58:00,